Location: Newark
(32.9900°N, 111.5400°W)
Time: 13:09:58
(UTC+00:00)

Envisat - Pass Details

Date: 19 November 2019
Orbit: 764 x 766 km, 98.1° (Epoch: 13 December)

Event Time Altitude Azimuth Distance (km) Brightness Sun altitude
Rises 02:09:44 0° 188° (S) 3,216 6.4 -22.3°
Reaches altitude 10° 02:12:12 10° 196° (SSW) 2,294 5.8 -22.8°
Maximum altitude 02:16:48 35° 262° (W) 1,215 4.6 -23.8°
Drops below altitude 10° 02:21:27 10° 328° (NNW) 2,306 5.7 -24.7°
Sets 02:23:57 0° 337° (NNW) 3,236 6.4 -25.3°
